User: anonymous   Login
Location: Gu�tanj
(46.5431°N, 14.9692°E)
Time: 23:54:01
(UTC+00:00)
Language:

Cosmos 1610 Rocket - Orbit

View from above orbital plane
View from above orbital plane
View from above satellite
View from above satellite

Ground track
Ground track

The orbit data is extracted from the following two-line orbital elements,

1 15399U 84118B   21129.51243066  .00000041  00000-0  25564-4 0  9992
2 15399  82.9493  30.2796 0034572 138.0545  34.8689 13.76129272831345
Epoch (UTC): 09 May 2021 12:17:54
Eccentricity: 0.0034572
inclination: 82.9493°
perigee height: 952 km
apogee height: 1003 km
right ascension of ascending node: 30.2796°
argument of perigee: 138.0545°
revolutions per day: 13.76129272
mean anomaly at epoch: 34.8689°
orbit number at epoch: 83134

The dashed part of the orbit path shows where the satellite is in the earth's shadow,  

DLR